TimeEDT,TemperatureF,Dew PointF,Humidity,Sea Level PressureIn,VisibilityMPH,Wind Direction,Wind SpeedMPH,Gust SpeedMPH,PrecipitationIn,Events,Conditions,WindDirDegrees,DateUTC
12:15 AM,39.0,33.8,82,29.72,10.0,SSE,8.1,-,N/A,Rain,Light Rain,160,2013-04-01 04:15:00
12:35 AM,38.3,34.0,84,29.72,7.0,South,8.1,-,N/A,Rain,Rain,170,2013-04-01 04:35:00
12:55 AM,37.8,33.8,86,29.71,7.0,SSE,8.1,-,N/A,Rain,Light Rain,160,2013-04-01 04:55:00
1:15 AM,37.4,33.8,87,29.69,7.0,South,8.1,-,N/A,Rain,Light Rain,170,2013-04-01 05:15:00
1:35 AM,37.4,34.0,87,29.69,7.0,South,8.1,-,N/A,Rain,Light Rain,170,2013-04-01 05:35:00
1:55 AM,37.4,33.8,87,29.68,10.0,SSE,9.2,-,N/A,,Drizzle,160,2013-04-01 05:55:00
2:15 AM,37.0,33.6,87,29.67,7.0,South,6.9,-,N/A,Rain,Rain,170,2013-04-01 06:15:00
2:35 AM,36.9,33.8,89,29.66,5.0,South,5.8,-,N/A,Rain,Light Rain,180,2013-04-01 06:35:00
2:55 AM,36.9,33.4,87,29.65,7.0,South,6.9,-,N/A,Rain,Light Rain,170,2013-04-01 06:55:00
3:15 AM,36.7,33.4,88,29.65,5.0,South,5.8,-,N/A,Rain,Light Rain,170,2013-04-01 07:15:00
3:35 AM,36.5,33.1,87,29.63,5.0,South,4.6,-,N/A,Rain,Heavy Rain,170,2013-04-01 07:35:00
3:55 AM,36.1,33.1,89,29.62,7.0,SSE,5.8,-,N/A,,Drizzle,160,2013-04-01 07:55:00
4:15 AM,35.8,32.9,89,29.61,7.0,SSE,9.2,-,N/A,,Drizzle,160,2013-04-01 08:15:00
4:35 AM,35.8,32.9,89,29.60,10.0,South,5.8,-,N/A,,Drizzle,180,2013-04-01 08:35:00
4:55 AM,35.4,32.4,89,29.60,10.0,SSW,5.8,-,N/A,,Light Drizzle,200,2013-04-01 08:55:00
5:15 AM,34.9,32.2,90,29.59,10.0,SSW,6.9,-,N/A,,Light Drizzle,200,2013-04-01 09:15:00
5:35 AM,34.2,32.0,92,29.58,10.0,South,3.5,-,N/A,,Light Drizzle,170,2013-04-01 09:35:00
5:55 AM,34.0,32.0,92,29.58,10.0,Calm,Calm,-,N/A,,Mostly Cloudy,0,2013-04-01 09:55:00
6:15 AM,34.3,32.0,91,29.58,10.0,SSE,5.8,-,N/A,,Overcast,160,2013-04-01 10:15:00
6:35 AM,34.3,32.0,91,29.58,10.0,SSE,4.6,-,N/A,,Overcast,160,2013-04-01 10:35:00
6:55 AM,34.5,32.0,90,29.58,10.0,SSE,5.8,-,N/A,,Overcast,160,2013-04-01 10:55:00
7:15 AM,35.1,32.4,90,29.58,10.0,South,4.6,-,N/A,,Overcast,170,2013-04-01 11:15:00
7:35 AM,35.2,32.2,89,29.58,10.0,South,3.5,-,N/A,,Overcast,190,2013-04-01 11:35:00
7:55 AM,35.6,32.2,87,29.58,10.0,South,5.8,-,N/A,,Overcast,180,2013-04-01 11:55:00
8:15 AM,35.8,32.9,89,29.57,10.0,South,3.5,-,N/A,,Overcast,190,2013-04-01 12:15:00
8:35 AM,37.6,34.2,87,29.56,10.0,SSE,11.5,-,N/A,,Overcast,160,2013-04-01 12:35:00
8:55 AM,37.6,33.8,86,29.56,10.0,South,6.9,-,N/A,,Overcast,180,2013-04-01 12:55:00
9:15 AM,37.4,33.6,86,29.55,10.0,SSW,4.6,-,N/A,,Overcast,200,2013-04-01 13:15:00
9:35 AM,38.3,34.5,86,29.54,10.0,SSW,5.8,-,N/A,,Overcast,200,2013-04-01 13:35:00
9:55 AM,39.2,34.5,83,29.53,10.0,South,8.1,-,N/A,,Overcast,180,2013-04-01 13:55:00
10:15 AM,40.1,34.9,82,29.52,10.0,South,6.9,-,N/A,,Overcast,180,2013-04-01 14:15:00
10:35 AM,40.8,35.6,82,29.52,10.0,WSW,6.9,-,N/A,,Overcast,240,2013-04-01 14:35:00
10:55 AM,41.9,35.8,79,29.51,10.0,SSW,10.4,-,N/A,,Mostly Cloudy,210,2013-04-01 14:55:00
11:15 AM,41.5,35.2,78,29.52,10.0,SSW,11.5,-,N/A,,Overcast,210,2013-04-01 15:15:00
11:35 AM,41.9,35.2,77,29.50,10.0,South,6.9,-,N/A,,Light Drizzle,190,2013-04-01 15:35:00
11:55 AM,43.3,34.9,72,29.50,10.0,SSW,9.2,-,N/A,,Overcast,200,2013-04-01 15:55:00
12:15 PM,42.4,34.7,74,29.50,10.0,SSW,8.1,-,N/A,,Overcast,200,2013-04-01 16:15:00
12:35 PM,42.1,35.2,77,29.49,10.0,SSW,6.9,-,N/A,,Light Drizzle,210,2013-04-01 16:35:00
12:55 PM,42.4,35.6,77,29.49,10.0,SSW,10.4,16.1,N/A,,Overcast,210,2013-04-01 16:55:00
1:15 PM,41.2,36.1,82,29.49,5.0,SSW,8.1,-,N/A,Rain,Light Rain,210,2013-04-01 17:15:00
1:35 PM,41.0,37.0,86,29.49,7.0,South,5.8,-,N/A,Rain,Light Rain,190,2013-04-01 17:35:00
1:55 PM,40.6,36.5,85,29.48,7.0,South,6.9,-,N/A,,Light Drizzle,180,2013-04-01 17:55:00
2:15 PM,41.2,36.3,83,29.48,10.0,SW,8.1,-,N/A,Rain,Rain,220,2013-04-01 18:15:00
2:35 PM,40.3,34.0,78,29.49,7.0,WSW,11.5,17.3,N/A,Rain,Light Rain,240,2013-04-01 18:35:00
2:55 PM,38.5,33.1,81,29.52,3.0,West,12.7,23.0,N/A,Rain,Rain,270,2013-04-01 18:55:00
3:15 PM,36.3,32.0,84,29.53,4.0,West,6.9,-,N/A,Rain,Rain,270,2013-04-01 19:15:00
3:35 PM,34.7,31.5,88,29.54,2.5,West,10.4,17.3,N/A,Rain,Light Rain,260,2013-04-01 19:35:00
3:55 PM,35.2,30.9,84,29.53,10.0,Calm,Calm,-,N/A,Rain,Light Rain,0,2013-04-01 19:55:00
4:15 PM,36.7,31.3,81,29.55,10.0,Calm,Calm,-,N/A,,Overcast,0,2013-04-01 20:15:00
4:35 PM,37.8,28.4,69,29.55,10.0,West,16.1,24.2,N/A,,Overcast,260,2013-04-01 20:35:00
4:55 PM,37.0,25.3,63,29.57,10.0,West,12.7,29.9,N/A,,Overcast,260,2013-04-01 20:55:00
5:15 PM,37.2,21.9,54,29.58,10.0,West,13.8,23.0,N/A,,Overcast,270,2013-04-01 21:15:00
5:35 PM,36.5,19.2,50,29.60,10.0,West,17.3,28.8,N/A,,Mostly Cloudy,260,2013-04-01 21:35:00
5:55 PM,36.3,17.1,46,29.60,10.0,West,16.1,20.7,N/A,,Mostly Cloudy,270,2013-04-01 21:55:00
6:15 PM,34.9,15.8,46,29.61,10.0,West,15.0,24.2,N/A,,Mostly Cloudy,270,2013-04-01 22:15:00
6:35 PM,34.2,13.8,43,29.63,10.0,WSW,16.1,23.0,N/A,,Overcast,250,2013-04-01 22:35:00
6:55 PM,33.8,12.0,41,29.63,10.0,WSW,15.0,26.5,N/A,,Mostly Cloudy,250,2013-04-01 22:55:00
7:15 PM,32.5,11.8,42,29.64,10.0,West,13.8,24.2,N/A,,Mostly Cloudy,260,2013-04-01 23:15:00
7:35 PM,32.0,14.2,48,29.65,10.0,WSW,13.8,20.7,N/A,,Overcast,250,2013-04-01 23:35:00
7:55 PM,30.9,18.7,61,29.67,7.0,West,15.0,23.0,N/A,Snow,Light Snow,280,2013-04-01 23:55:00
8:15 PM,29.3,18.7,65,29.67,10.0,WSW,6.9,18.4,N/A,,Overcast,250,2013-04-02 00:15:00
8:35 PM,30.0,11.3,46,29.68,10.0,West,9.2,18.4,N/A,,Scattered Clouds,270,2013-04-02 00:35:00
8:55 PM,30.2,10.2,43,29.68,10.0,West,15.0,23.0,N/A,,Mostly Cloudy,260,2013-04-02 00:55:00
9:15 PM,30.2,9.1,41,29.68,10.0,West,15.0,24.2,N/A,,Overcast,260,2013-04-02 01:15:00
9:35 PM,29.8,11.1,46,29.68,10.0,West,16.1,26.5,N/A,,Overcast,280,2013-04-02 01:35:00
9:55 PM,28.2,16.2,61,29.69,5.0,West,16.1,24.2,N/A,Snow,Light Snow,270,2013-04-02 01:55:00
10:15 PM,27.7,16.0,62,29.70,7.0,West,11.5,21.9,N/A,Snow,Light Snow,280,2013-04-02 02:15:00
10:35 PM,27.5,15.6,61,29.71,10.0,West,13.8,23.0,N/A,,Overcast,280,2013-04-02 02:35:00
10:55 PM,26.6,16.3,65,29.71,10.0,West,11.5,18.4,N/A,,Overcast,280,2013-04-02 02:55:00
11:15 PM,26.6,14.5,60,29.71,10.0,West,11.5,24.2,N/A,,Overcast,280,2013-04-02 03:15:00
11:35 PM,25.7,15.6,66,29.72,5.0,West,15.0,21.9,N/A,Snow,Light Snow,280,2013-04-02 03:35:00
11:55 PM,24.3,18.3,78,29.71,2.0,West,11.5,16.1,N/A,Snow,Light Snow,280,2013-04-02 03:55:00